Liste des engagé(e)s
Classement
PDF
   
         
   
 
Pos N° Nom Prénom Pays Temps Ecart Pl. Cat. Pl. Sexe Club
1 830 DINARD Gabin 00:03:02 1 PO 1 M S/L AL VOIRON
2 793 GUETAT Timeo 00:03:04 02 2 PO 2 M
3 786 TOURÉ Aliou 00:03:05 03 3 PO 3 M US SAINT-EGREVE
4 860 PIERRE Naël 00:03:09 07 4 PO 4 M
5 866 HERRIOT Nathan 00:03:09 07 5 PO 5 M
6 829 FROMAGET VALLE David 00:03:11 09 6 PO 6 M
7 859 CHARRIER Loris 00:03:16 14 7 PO 7 M
8 827 LAIR Amaury 00:03:17 15 8 PO 8 M S/L AL VOIRON
9 839 STUTZMANN Lili 00:03:17 15 1 PO 1 F COUREURS DU MONDE EN ISERE*
10 879 LE GALL Zoe 00:03:17 15 2 PO 2 F S/L AL VOIRON
11 840 KABWE Benjamin 00:03:19 17 9 PO 9 M
12 815 DERIAT EloĂŻse 00:03:20 18 3 PO 3 F
13 870 VELLEMENT Agathe 00:03:21 19 4 PO 4 F
14 805 PACE Anatole 00:03:21 19 10 PO 10 M S/L AL VOIRON
15 846 RASTELLO Lucie 00:03:22 20 5 PO 5 F
16 810 TISSERANT Albane 00:03:22 20 6 PO 6 F
17 872 BONAIMÉ Margot 00:03:24 22 7 PO 7 F
18 819 DUPERRAY Zachary 00:03:25 23 1 EA 11 M
19 820 KARAMALI Nikita 00:03:26 24 2 EA 12 M
20 814 CHARDONNEREAU Arthur 00:03:26 24 3 EA 13 M
21 780 THONAT Quentin 00:03:27 25 11 PO 14 M
22 907 SAIDI Sonia 00:03:28 26 1 SE 8 F
23 818 VAILLS Ethan 00:03:29 27 12 PO 15 M S/L CA MOIRANS
24 877 LORPHELIN Antoine 00:03:30 28 4 EA 16 M
25 871 YADEL Ines 00:03:31 29 8 PO 9 F
26 807 GOUBY Nilo 00:03:31 29 5 EA 17 M
27 874 MOREL Eliott 00:03:31 29 13 PO 18 M S/L AL VOIRON
28 873 LAAOUISSI Lyna 00:03:32 30 9 PO 10 F S/L AL VOIRON
29 828 BOSIO Romain 00:03:33 31 6 EA 19 M S/L AL VOIRON
30 850 BESACIER Fantin 00:03:34 32 7 EA 20 M
31 825 THULLIEZ Lucie 00:03:34 32 10 PO 11 F S/L AL VOIRON
32 802 FREYCENON Thibaut 00:03:36 34 14 PO 21 M
33 880 MAIORANA Clément 00:03:37 35 15 PO 22 M
34 868 BOSSANNE-DOUCHANT Anatole 00:03:37 35 8 EA 23 M
35 854 FAYDIDE Clovis 00:03:38 36 9 EA 24 M
36 845 SANFILIPPO Arthur 00:03:38 36 16 PO 25 M
37 823 PICKAERTS Line 00:03:39 37 11 PO 12 F
38 787 TOURÉ Demba 00:03:40 38 10 EA 26 M
39 883 SÉJOURNÉ Etienne 00:03:40 38 17 PO 27 M
40 813 GONCALVES Séléna 00:03:40 38 12 PO 13 F
41 876 BOURBIA Nassima 00:03:40 38 1 EA 14 F S/L CAMN VILLEURBANNE
42 912 VAN BUTSELE ELEA 00:03:41 39 13 PO 15 F
43 906 HOMAND Manon 00:03:43 41 2 EA 16 F
44 784 GERVASONI Lucien 00:03:44 42 18 PO 28 M
45 861 PIERRE Noah 00:03:44 42 11 EA 29 M
46 803 TAPPA RĂ©mi 00:03:45 43 12 EA 30 M
47 795 GUILLAUD Isaline 00:03:45 43 14 PO 17 F
48 811 ROUAULT Gabriel 00:03:45 43 13 EA 31 M
49 798 ROUX-SIBILON Nolan 00:03:47 45 19 PO 32 M
50 833 REY-GALIAY KĂ©lian 00:03:47 45 14 EA 33 M
51 847 PASQUALON MĂ©lie 00:03:48 46 15 PO 18 F S/L CA MOIRANS
52 864 LOURENÇO Martin 00:03:49 47 15 EA 34 M
53 838 CHEVY-CHAUSSIDON MĂ©lissa 00:03:49 47 16 PO 19 F
54 908 SOUGEY LARDIN Lisa 00:03:52 50 3 EA 20 F
55 910 GALLIN AMAEL 00:03:52 50 20 PO 35 M
56 849 BESACIER Anouk 00:03:53 51 17 PO 21 F
57 848 DÉGARDIN Charline 00:03:54 52 4 EA 22 F
58 831 BRISION Elodie 00:03:55 53 5 EA 23 F
59 796 NOBILE Emmanuel 00:03:55 53 21 PO 36 M
60 816 REICHLING Camille 00:03:56 54 6 EA 24 F S/L CA MOIRANS
61 881 MAIORANA Julie 00:03:56 54 7 EA 25 F
62 809 TISSERANT Nina 00:03:56 54 18 PO 26 F
63 797 ROUX-SIBILON Louna 00:03:57 55 8 EA 27 F
64 835 CALEPRICO Tommy 00:03:58 56 16 EA 37 M
65 794 GAUTIER Maélys 00:03:59 57 19 PO 28 F
66 834 MATHIEU Nathan 00:04:00 58 17 EA 38 M S/L AL VOIRON
67 822 HAUPT Nils 00:04:03 01:01 18 EA 39 M
68 843 SUPLY Hugo 00:04:03 01:01 19 EA 40 M
69 799 MULARCZYK Helena 00:04:06 01:04 20 PO 29 F S/L EA RIVES
70 852 CHARRETON Mahe 00:04:06 01:04 22 PO 41 M
71 853 FAYDIDE Oscar 00:04:07 01:05 23 PO 42 M
72 844 SUPLY AnaĂŻs 00:04:07 01:05 21 PO 30 F
73 789 BEUDIN Soen 00:04:08 01:06 20 EA 43 M
74 856 GUELOUL Selma 00:04:09 01:07 9 EA 31 F S/L AL VOIRON
75 778 RICHARD Eleane 00:04:10 01:08 10 EA 32 F
76 781 ROYBON Tom 00:04:13 01:11 21 EA 44 M
77 867 FROMENTY Sacha 00:04:14 01:12 22 EA 45 M
78 791 GOUYON NaĂŻs 00:04:17 01:15 22 PO 33 F
79 826 PEYRADE Mathilde 00:04:20 01:18 23 PO 34 F
80 909 FLORES KYLLIAN 00:04:21 01:19 23 EA 46 M
81 875 SAINTE LUCE Marley 00:04:21 01:19 11 EA 35 F
82 779 PASCOVSCHI-LECLERC Nathan 00:04:22 01:20 24 EA 47 M
83 788 JOURDAIN BESSON Mai lan 00:04:24 01:22 24 PO 36 F
84 911 VAN BUTSELE TESS 00:04:26 01:24 12 EA 37 F
85 865 HERRIOT Camille 00:04:30 01:28 13 EA 38 F
86 851 BESACIER Lison 00:04:30 01:28 14 EA 39 F
87 882 FREMAUX LĂ©o 00:04:31 01:29 25 EA 48 M
88 776 LE GALL Lisa 00:04:32 01:30 25 PO 40 F
89 878 LORPHELIN AnaĂŻs 00:04:32 01:30 15 EA 41 F
90 863 CHEVAL Jeanne 00:04:33 01:31 16 EA 42 F
91 915 MICON Aloise 00:04:33 01:31 17 EA 43 F
92 785 GERVASONI Eugénie 00:04:36 01:34 18 EA 44 F
93 817 CHASSIGNEUX Lena 00:04:39 01:37 26 PO 45 F
94 800 AMOUDRUZ Clémence 00:04:40 01:38 19 EA 46 F
95 790 GOUYON Noélie 00:04:41 01:39 20 EA 47 F
96 832 MARSELLI Enzo 00:04:59 01:57 26 EA 49 M
97 913 ANDRE NILSA 00:05:19 02:17 21 EA 48 F
98 812 GONCALVES Anaë 00:05:21 02:19 22 EA 49 F
99 862 NAUDET Evangéline 00:05:21 02:19 23 EA 50 F
100 806 VISCUSO Martin 00:05:48 02:46 1 BE 50 M
  La Course des Mini-lutins - 0.8km 2018
 
Nombre ou lettres (3 minimum)
Classement    
Filtre :
Rang :